User: anonymous   Login
Location: Unspecified
(0.0000°N, 0.0000°E)
Time: 03:37:51
(UTC+00:00)
Language:

Oscar 19 - Orbit

View from above orbital plane
View from above orbital plane
View from above satellite
View from above satellite

Ground track
Ground track

The orbit data is extracted from the following two-line orbital elements,

1 20442U 90005G   18017.80102568 -.00000007  00000-0  13565-4 0  9995
2 20442  98.5972 317.3324 0010825 231.1338 128.8881 14.32884373462353
Epoch (UTC): 17 January 2018 19:13:28
Eccentricity: 0.0010825
inclination: 98.5972°
perigee height: 774 km
apogee height: 790 km
right ascension of ascending node: 317.3324°
argument of perigee: 231.1338°
revolutions per day: 14.32884373
mean anomaly at epoch: 128.8881°
orbit number at epoch: 46235

The dashed part of the orbit path shows where the satellite is in the earth's shadow,  

DLR